Weather History for Creston, IA

Change the Weather History Date:

Wednesday, April 10, 2013

  Actual Average Record
Temperature  
Mean Temperature 42 °F -  
Max Temperature 44 °F 59 °F 84 °F (1981)
Min Temperature 39 °F 34 °F 17 °F (1989)
Degree Days  
Heating Degree Days 24    
Moisture  
Dew Point 37 °F    
Average Humidity 86    
Maximum Humidity 93    
Minimum Humidity 81    
Precipitation  
Precipitation 0.97 in - - ()
Sea Level Pressure  
Sea Level Pressure 29.82 in    
Wind  
Wind Speed 14 mph (NE)    
Max Wind Speed 28 mph    
Max Gust Speed 34 mph    
Visibility 7 miles    
Events Rain    
Averages and records for this station are not official NWS values.
T = Trace of Precipitation, MM = Missing Value Source: NWS Daily Summary

Daily Weather History Graph

Daily Weather History Graph

Search for Another Location

Airport:

Trip Planner

Search our weather history database for the weather conditions in past years. The results will help you decide how hot, cold, wet, or windy it might be!

Date:

Astronomy

Apr. 10, 2013 Rise Set
Actual Time 6:45 AM CDT 7:52 PM CDT
Civil Twilight 6:17 AM CDT 8:20 PM CDT
Nautical Twilight 5:43 AM CDT 8:54 PM CDT
Astronomical Twilight 5:08 AM CDT 9:29 PM CDT
Moon 6:42 AM CDT (4/10) 8:29 PM CDT (4/10)
Length of Visible Light 14h 03m
Length of Day
13h 06m
New Moon, 0% of the Moon is Illuminated
Apr 10
New Moon
Apr 18
First Quarter
Apr 25
Full
May 2
Last Quarter
May 9
New

Hourly Weather History & Observations

Time (CDT) Temp. Windchill Dew Point Humidity Pressure Visibility Wind Dir Wind Speed Gust Speed Precip Events Conditions
12:15 AM 41.0 °F 30.5 °F 37.4 °F 87% 29.86 in 4.0 mi North 26.5 mph 33.4 mph N/A Rain Light Rain
12:35 AM 41.0 °F 31.1 °F 37.4 °F 87% 29.83 in 7.0 mi NNE 23.0 mph 33.4 mph N/A Rain Light Rain
12:55 AM 41.0 °F 30.2 °F 37.4 °F 87% 29.85 in 10.0 mi NNE 27.6 mph 32.2 mph N/A   Overcast
1:15 AM 41.0 °F 30.7 °F 37.4 °F 87% 29.82 in 10.0 mi NE 25.3 mph 33.4 mph N/A   Overcast
1:35 AM 41.0 °F 30.5 °F 37.4 °F 87% 29.82 in 10.0 mi NE 26.5 mph 34.5 mph N/A   Drizzle
1:55 AM 41.0 °F 33.1 °F 37.4 °F 87% 29.89 in 0.8 mi North 15.0 mph 28.8 mph 0.32 in Rain Rain
2:15 AM 41.0 °F 35.8 °F 37.4 °F 87% 29.92 in 10.0 mi ENE 8.1 mph - 0.02 in Rain Light Rain
2:35 AM 41.0 °F 33.9 °F 37.4 °F 87% 29.91 in 10.0 mi ENE 12.7 mph - 0.03 in Rain Rain
2:55 AM 41.0 °F 32.5 °F 37.4 °F 87% 29.86 in 10.0 mi ENE 17.3 mph - 0.09 in Rain Rain
3:15 AM 41.0 °F 33.1 °F 37.4 °F 87% 29.84 in 10.0 mi ENE 15.0 mph - 0.05 in Rain Rain
3:35 AM 41.0 °F 32.8 °F 37.4 °F 87% 29.80 in 10.0 mi ENE 16.1 mph - 0.07 in Rain Light Rain
3:55 AM 42.8 °F 32.7 °F 37.4 °F 81% 29.70 in 7.0 mi ENE 27.6 mph 32.2 mph 0.08 in Rain Light Rain
4:15 AM 42.8 °F 34.0 °F 37.4 °F 81% 29.73 in 10.0 mi NE 20.7 mph - N/A   Overcast
4:35 AM 41.0 °F 31.4 °F 37.4 °F 87% 29.71 in 10.0 mi NE 21.9 mph 27.6 mph N/A   Overcast
4:55 AM 41.0 °F 31.4 °F 37.4 °F 87% 29.71 in 10.0 mi ENE 21.9 mph 27.6 mph N/A   Overcast
5:15 AM 41.0 °F 36.4 °F 37.4 °F 87% 29.75 in 10.0 mi East 6.9 mph 16.1 mph N/A   Overcast
5:35 AM 42.8 °F 38.6 °F 37.4 °F 81% 29.83 in 10.0 mi West 6.9 mph - N/A   Overcast
5:55 AM 42.8 °F - 39.2 °F 87% 29.87 in 10.0 mi Calm Calm - N/A   Overcast
6:15 AM 42.8 °F - 39.2 °F 87% 29.86 in 7.0 mi Calm Calm - 0.01 in Rain Rain
6:35 AM 42.8 °F 35.4 °F 39.2 °F 87% 29.79 in 7.0 mi NE 15.0 mph - 0.09 in Rain Rain
6:55 AM 42.8 °F 38.0 °F 39.2 °F 87% 29.84 in 7.0 mi NE 8.1 mph - 0.11 in Rain Light Rain
7:15 AM 42.8 °F 38.0 °F 39.2 °F 87% 29.83 in 10.0 mi North 8.1 mph - 0.01 in   Drizzle
7:35 AM 42.8 °F 40.1 °F 37.4 °F 81% 29.86 in 10.0 mi North 4.6 mph - 0.01 in   Overcast
7:55 AM 41.0 °F 39.0 °F 37.4 °F 87% 29.88 in 10.0 mi North 3.5 mph - 0.01 in   Light Drizzle
8:15 AM 41.0 °F - 37.4 °F 87% 29.89 in 10.0 mi Calm Calm - N/A   Overcast
8:35 AM 41.0 °F 37.1 °F 37.4 °F 87% 29.86 in 7.0 mi NNW 5.8 mph - N/A Rain Light Rain
8:55 AM 41.0 °F 36.4 °F 37.4 °F 87% 29.87 in 10.0 mi North 6.9 mph - 0.01 in Rain Rain
9:15 AM 41.0 °F 36.4 °F 37.4 °F 87% 29.89 in 10.0 mi NNW 6.9 mph - 0.02 in Rain Light Rain
9:55 AM 41.0 °F 33.5 °F 37.4 °F 87% 29.86 in 10.0 mi North 13.8 mph - 0.02 in   Overcast
10:15 AM 41.0 °F 35.2 °F 37.4 °F 87% 29.89 in 10.0 mi North 9.2 mph - N/A   Overcast
10:35 AM 41.0 °F 34.3 °F 37.4 °F 87% 29.86 in 10.0 mi NE 11.5 mph - N/A Rain Light Rain
10:55 AM 41.0 °F 35.8 °F 37.4 °F 87% 29.87 in 10.0 mi ENE 8.1 mph - 0.01 in Rain Light Rain
11:15 AM 41.0 °F 35.2 °F 37.4 °F 87% 29.89 in 7.0 mi ENE 9.2 mph - 0.01 in Rain Rain
11:35 AM 42.8 °F 39.3 °F 39.2 °F 87% 29.89 in 10.0 mi ENE 5.8 mph - 0.04 in Rain Light Rain
12:15 PM 42.8 °F 39.3 °F 39.2 °F 87% 29.90 in 2.5 mi ENE 5.8 mph - 0.06 in Rain Rain
12:35 PM 42.8 °F 38.0 °F 39.2 °F 87% 29.89 in 10.0 mi East 8.1 mph - 0.10 in Rain Light Rain
12:55 PM 42.8 °F 38.0 °F 39.2 °F 87% 29.88 in 10.0 mi East 8.1 mph - 0.10 in   Light Drizzle
1:15 PM 44.6 °F 41.4 °F 39.2 °F 81% 29.87 in 10.0 mi ESE 5.8 mph - 0.01 in Rain Light Rain
1:35 PM 44.6 °F - 39.2 °F 81% 29.86 in 10.0 mi Calm Calm - 0.01 in   Overcast
1:55 PM 44.6 °F - 41.0 °F 87% 29.85 in 3.0 mi Calm Calm - 0.01 in Rain Rain
2:15 PM 44.6 °F 40.2 °F 41.0 °F 87% 29.84 in 2.0 mi NNW 8.1 mph - N/A   Light Drizzle
2:35 PM 42.8 °F 36.2 °F 39.2 °F 87% 29.84 in 1.2 mi North 12.7 mph - N/A   Light Drizzle
2:55 PM 42.8 °F 36.2 °F 39.2 °F 87% 29.86 in 1.8 mi North 12.7 mph - N/A   Light Drizzle
3:15 PM 42.8 °F 37.0 °F 39.2 °F 87% 29.86 in 2.0 mi North 10.4 mph - N/A   Overcast
3:35 PM 42.8 °F 36.2 °F 39.2 °F 87% 29.86 in 3.0 mi North 12.7 mph - N/A   Overcast
3:55 PM 42.8 °F 35.8 °F 37.4 °F 81% 29.83 in 7.0 mi North 13.8 mph - N/A   Overcast
4:15 PM 41.0 °F 33.1 °F 37.4 °F 87% 29.82 in 4.0 mi North 15.0 mph - N/A   Overcast
4:35 PM 42.8 °F 37.5 °F 37.4 °F 81% 29.83 in 10.0 mi NNE 9.2 mph - N/A   Overcast
4:55 PM 42.8 °F 37.0 °F 37.4 °F 81% 29.82 in 10.0 mi NNE 10.4 mph - N/A   Overcast
5:15 PM 42.8 °F 35.4 °F 37.4 °F 81% 29.79 in 10.0 mi NNE 15.0 mph - N/A   Overcast
5:35 PM 41.0 °F 33.1 °F 37.4 °F 87% 29.78 in 10.0 mi North 15.0 mph - N/A   Overcast
5:55 PM 39.2 °F 30.8 °F 37.4 °F 93% 29.75 in 10.0 mi NNE 15.0 mph 20.7 mph N/A   Overcast
6:15 PM 41.0 °F 32.8 °F 37.4 °F 87% 29.75 in 10.0 mi NNE 16.1 mph - 0.01 in   Overcast
6:35 PM 39.2 °F 32.5 °F 35.6 °F 87% 29.77 in 10.0 mi NNE 10.4 mph - 0.01 in   Overcast
6:55 PM 39.2 °F 32.0 °F 35.6 °F 87% 29.75 in 10.0 mi NE 11.5 mph - 0.01 in   Overcast
7:15 PM 39.2 °F 29.8 °F 35.6 °F 87% 29.71 in 3.0 mi NE 18.4 mph - N/A   Overcast
7:35 PM 39.2 °F 33.6 °F 35.6 °F 87% 29.76 in 3.0 mi NNE 8.1 mph - N/A   Overcast
7:55 PM 39.2 °F - 35.6 °F 87% 29.78 in 4.0 mi Calm Calm - N/A   Overcast
8:15 PM 39.2 °F 33.6 °F 35.6 °F 87% 29.77 in 2.5 mi NE 8.1 mph - N/A   Drizzle
8:35 PM 39.2 °F 33.6 °F 35.6 °F 87% 29.78 in 2.5 mi NE 8.1 mph - N/A   Light Drizzle
8:55 PM 39.2 °F 33.6 °F 35.6 °F 87% 29.78 in 2.5 mi ENE 8.1 mph - N/A   Overcast
9:15 PM 39.2 °F 32.0 °F 35.6 °F 87% 29.76 in 2.0 mi ENE 11.5 mph - 0.01 in   Overcast
9:35 PM 39.2 °F 32.5 °F 35.6 °F 87% 29.76 in 4.0 mi ENE 10.4 mph - 0.01 in   Overcast
9:55 PM 39.2 °F 35.0 °F 35.6 °F 87% 29.76 in 4.0 mi ENE 5.8 mph - 0.01 in Rain Light Rain
10:15 PM 39.2 °F - 35.6 °F 87% 29.78 in 5.0 mi Calm Calm - N/A Rain Light Rain
10:35 PM 39.2 °F - 35.6 °F 87% 29.77 in 2.5 mi Calm Calm - 0.02 in Rain Light Rain
10:55 PM 39.2 °F 37.0 °F 35.6 °F 87% 29.75 in 3.0 mi NW 3.5 mph - 0.06 in Rain Light Rain
11:15 PM 39.2 °F 35.9 °F 35.6 °F 87% 29.73 in 5.0 mi NE 4.6 mph - 0.05 in Rain Rain
11:35 PM 39.2 °F - 35.6 °F 87% 29.72 in 5.0 mi Calm Calm - 0.07 in Rain Rain
11:55 PM 39.2 °F 35.9 °F 35.6 °F 87% 29.71 in 10.0 mi NE 4.6 mph - 0.09 in Rain Light Rain